Prerov, Czech Republic

12:33 AM CEST on March 27, 2017 (GMT +0200)
Prerov

Weather History for LKPO - December, 2012

Change the Weather History Date:

Sunday, December 30, 2012

  Actual Average Record
Temperature  
Mean Temperature 32 °F -  
Max Temperature 35 °F - - ()
Min Temperature 28 °F - - ()
Degree Days  
Heating Degree Days 34    
Moisture  
Dew Point 23 °F    
Average Humidity 68    
Maximum Humidity 80    
Minimum Humidity 51    
Precipitation  
Precipitation 0.00 in - - ()
Sea Level Pressure  
Sea Level Pressure 30.21 in    
Wind  
Wind Speed 6 mph ()    
Max Wind Speed 10 mph    
Max Gust Speed -    
Visibility 6.2 miles    
Events Snow    
T = Trace of Precipitation, MM = Missing Value Source: Averaged Metar Reports

Daily Weather History Graph

Daily Weather History Graph

Search for Another Location

Airport or City:

Trip Planner

Search our weather history database for the weather conditions in past years. The results will help you decide how hot, cold, wet, or windy it might be!

Date:

Astronomy

Dec. 30, 2012 Rise Set
Actual Time 7:46 AM CET 3:59 PM CET
Civil Twilight 7:08 AM CET 4:37 PM CET
Nautical Twilight 6:27 AM CET 5:18 PM CET
Astronomical Twilight 5:48 AM CET 5:57 PM CET
Moon 6:27 PM CET (12/30) 8:33 AM CET (12/30)
Length of Visible Light 9h 29m
Length of Day
8h 13m
Waning Gibbous, 96% of the Moon is Illuminated
Dec 30
Waning Gibbous
Jan 5
Last Quarter
Jan 11
New
Jan 19
First Quarter
Jan 27
Full

Hourly Weather History & Observations

Time (CET) Temp. Windchill Dew Point Humidity Pressure Visibility Wind Dir Wind Speed Gust Speed Precip Events Conditions
12:00 AM 32.0 °F 24.2 °F 15.8 °F 51% 30.21 in - South 9.2 mph - N/A   Clear
1:00 AM 30.2 °F 21.9 °F 15.8 °F 55% 30.21 in - SSW 9.2 mph - N/A   Clear
2:00 AM 30.2 °F 22.6 °F 15.8 °F 55% 30.21 in - SSW 8.1 mph - N/A   Clear
3:00 AM 30.2 °F 21.9 °F 15.8 °F 55% 30.21 in - SSW 9.2 mph - N/A   Clear
4:00 AM 30.2 °F 23.4 °F 17.6 °F 60% 30.21 in - SSW 6.9 mph - N/A   Clear
5:00 AM 30.2 °F 24.3 °F 17.6 °F 60% 30.18 in - SW 5.8 mph - N/A   Clear
6:00 AM 32.0 °F 26.4 °F 19.4 °F 60% 30.18 in - SSW 5.8 mph - N/A   Clear
7:00 AM 28.4 °F - 21.2 °F 74% 30.18 in - Calm Calm - N/A   Clear
8:00 AM 30.2 °F - 23.0 °F 75% 30.18 in - Variable 1.2 mph - N/A   Clear
9:00 AM 32.0 °F - 24.8 °F 75% 30.21 in - Calm Calm - N/A   Clear
10:00 AM 33.8 °F 28.6 °F 26.6 °F 75% 30.21 in 6.2 mi SSW 5.8 mph - N/A   Partly Cloudy
11:00 AM 33.8 °F 26.4 °F 26.6 °F 75% 30.21 in 6.2 mi SW 9.2 mph - N/A   Partly Cloudy
12:00 PM 35.6 °F 28.0 °F 24.8 °F 65% 30.21 in 6.2 mi SW 10.4 mph - N/A   Partly Cloudy
1:00 PM 35.6 °F 29.2 °F 24.8 °F 65% 30.21 in - SW 8.1 mph - N/A   Clear
2:00 PM 35.6 °F 30.7 °F 24.8 °F 65% 30.21 in - SSW 5.8 mph - N/A   Clear
3:00 PM 33.8 °F 27.7 °F 26.6 °F 75% 30.21 in - West 6.9 mph - N/A   Clear
4:00 PM 33.8 °F - 26.6 °F 75% 30.21 in 6.2 mi Variable 2.3 mph - N/A Snow Light Snow
5:00 PM 33.8 °F 29.6 °F 24.8 °F 70% 30.21 in 6.2 mi SW 4.6 mph - N/A   Overcast
6:00 PM 32.0 °F - 26.6 °F 80% 30.21 in - Variable 2.3 mph - N/A   Clear
7:00 PM 33.8 °F 30.8 °F 24.8 °F 70% 30.24 in - SSW 3.5 mph - N/A   Clear
8:00 PM 32.0 °F - 26.6 °F 80% 30.24 in - Variable 2.3 mph - N/A   Clear
9:00 PM 32.0 °F 26.4 °F 24.8 °F 75% 30.24 in - SSW 5.8 mph - N/A   Clear
10:00 PM 32.0 °F 28.7 °F 24.8 °F 75% 30.24 in - South 3.5 mph - N/A   Clear
11:00 PM 32.0 °F 25.6 °F 24.8 °F 75% 30.27 in - South 6.9 mph - N/A   Clear